Starlink 30378

operational
NORAD ID: 57787 Int'l Des: 2023-134 Owner: SPXS Country: US Constellation: starlink
LEOCIRCULAR

关于 Starlink 30378

正在加载描述...

实时位置

正在加载3D地球...

即将过境

高度历史

Altitude vs Time

uPlot chart will show altitude changes over time

两行轨道根数

1 57787U 23134S 25259.76880228 -.00000466 00000-0 -19403-4 0 9990
2 57787 43.0034 62.1464 0001005 260.9196 99.1533 15.02533282113312
Epoch: Sep 16, 2025 • Age: 33 hours

当前状态

高度 566.5 km
速度 7.58 km/s
星下点 -29.66°S, 36.38°W
发射日期 Sep 4, 2023
运行时间 2 years
类型 internet

技术详情

分类 Payload
质量 730.00 kg
干质量 700.00 kg
总质量 730.00 kg
长度 0.30 m
直径 4.10 m
跨度 29.00 m
形状 Box + pan
制造商 SPXS
平台类型 Starlink V2M
阶段状态 In Orbit
所有者/国家 SPXS/US

大型星座

Loading constellations...